Regional Weather Roundup
Issued by NWS

Home | Current Version | Previous Version | Text Only | Print | Product List | Glossary Off
Versions: 1 2 3 4 5 6 7 8 9 10 11 12 13 14 15 16 17 18 19 20 21 22 23 24 25 26 27 28 29 30 31 32 33 34 35 36 37 38 39 40 41 42 43 44 45 46 47 48 49 50

964
ASUS45 KTFX 290310
RWRMT
MONTANA REGIONAL WEATHER ROUNDUP
NATIONAL WEATHER SERVICE GREAT FALLS MT
900 PM MDT SUN MAY 28 2017

NOTE: "FAIR" INDICATES FEW OR NO CLOUDS BELOW 12000 FEET WITH NO
SIGNIFICANT WEATHER AND/OR OBSTRUCTIONS TO VISIBILITY.

MTZ001>007-043-290400-
WEST OF THE DIVIDE

CITY           SKY/WX    TMP DP  RH WIND       PRES   REMARKS
KALISPELL      CLEAR     66  48  52 CALM      30.11S
MISSOULA       PTCLDY    69  42  37 NW6       30.13R
BUTTE          CLEAR     56  42  59 S14       30.28R
MULLAN PASS    CLOUDY    61  34  36 N3        30.27S
ANACONDA         N/A     63  39  42 NW8       30.23S
DEER LODGE       N/A     63  39  42 N8        30.26R
EUREKA           N/A     72  43  35 CALM      30.08S
HAMILTON         N/A     72  41  33 NW3       30.14R
RONAN            N/A     71  47  42 MISG      30.16S
$$

MTZ008-052>055-290400-
SOUTHWEST MONTANA

CITY           SKY/WX    TMP DP  RH WIND       PRES   REMARKS
BOZEMAN        CLOUDY    60  45  57 S8        30.23R
DILLON         PTCLDY    63  37  38 NE10      30.23S
ENNIS          PTCLDY    57  41  54 N9G18     30.30R
$$

MTZ009-010-012-014-046-048-049-054-290400-
EAST SLOPES AND CENTRAL MONTANA

CITY           SKY/WX    TMP DP  RH WIND       PRES   REMARKS
CUT BANK       CLEAR     62  41  46 E10       30.23R
GREAT FALLS    MOCLDY    56  51  84 SW7       30.23R
MALMSTROM AFB  PTCLDY    60  48  64 SW9       30.22F
HELENA         CLOUDY    65  43  44 NW7       30.22F
CHOTEAU          N/A     57  48  72 W7        30.26R
CONRAD           N/A     61  53  74 SW7       30.24R
$$

MTZ011-013-016-021-045-047-050-051-290400-
NORTH CENTRAL MONTANA

CITY           SKY/WX    TMP DP  RH WIND       PRES   REMARKS
HAVRE          CLEAR     65  34  31 N10       30.18R
LEWISTOWN      CLEAR     59  38  45 NW3       30.22S
N BAR RANCH      N/A     55  37  50 NW7G15    30.25R
CHINOOK          N/A     64  30  27 N7        30.17R
$$

MTZ017>020-022>027-061-062-290400-
NORTHEAST MONTANA

CITY           SKY/WX    TMP DP  RH WIND       PRES   REMARKS
GLASGOW        CLEAR     62  25  24 N13       30.10R
JORDAN           N/A     62  27  26 N9        30.12R
SIDNEY         CLEAR     57  37  47 N9        30.05R
WOLF POINT     CLEAR     62  29  28 N12       30.08R
MALTA          CLEAR     61  28  29 N9        30.14R
PLENTYWOOD       N/A     57  36  44 N14       30.05R
$$

MTZ028>42-056>058-290400-
SOUTHCENTRAL AND SOUTHEAST MONTANA

CITY           SKY/WX    TMP DP  RH WIND       PRES   REMARKS
BAKER          CLEAR     58  30  34 NW12      30.05S
BILLINGS       PTCLDY    61  46  57 SW12      30.20R
LIVINGSTON     PTCLDY    56  45  66 CALM      30.26F
MILES CITY     CLEAR     66  25  21 N14       30.09R
BIG TIMBER     PTCLDY    57  45  62 CALM      30.29S
FORSYTH          N/A     66  27  22 NW8       30.11S
LAUREL           N/A     56  45  66 SW2       30.18F
ROUNDUP          N/A     62  37  39 NW5       30.09R
$$

REGIONAL REPORTS...DAKOTAS

CITY           SKY/WX    TMP DP  RH WIND       PRES   REMARKS
WILLISTON      CLEAR     52  40  63 NW7       30.03S
MINOT          CLOUDY    56  43  61 NW18G28   29.93S
DICKINSON      PTCLDY    54  35  48 N14G23    30.00R
BEACH            N/A     57  30  35 N15       30.07R
CROSBY         MOCLDY    55  37  50 NW13G18   30.03R
TIOGA            N/A     54  41  62 N13       30.03R
WATFORD CITY     N/A     54  39  58 N7        30.02S
BISMARCK       PTCLDY    58  41  53 NW10      29.94R
GRAND FORKS    CLOUDY    54  49  83 NW15      29.78R
FARGO          CLOUDY    55  50  83 NW10      29.79R
BUFFALO SD       N/A     58  34  40 N15       29.98R
RAPID CITY     CLOUDY    56  42  59 NW9       30.05R
$$

REGIONAL REPORTS...WYOMING/IDAHO/WASHINGTON

CITY           SKY/WX    TMP DP  RH WIND       PRES   REMARKS
GILLETTE       PTCLDY    55  42  61 NW15      30.16S
SHERIDAN       CLEAR     52  42  69 W9        30.19S
BUFFALO WY     PTCLDY    56  37  49 W17       30.23S
CODY           PTCLDY    56  41  57 SW8       30.28R
YELLOWSTONE LA   N/A     42  38  85 CALM      30.40R
IDAHO FALLS    CLEAR     67  42  40 CALM      30.19R
SALMON         CLOUDY    66  43  42 S3        30.10S
BOISE          CLEAR     78  38  23 N9        30.07S
SPOKANE        PTCLDY    80  45  28 W6        30.08S
$$

REGIONAL REPORTS...ALBERTA

CITY           SKY/WX    TMP DP  RH WIND       PRES   REMARKS
EDMONTON       CLEAR     59  36  41 E5        30.22S
LETHBRIDGE     PTCLDY    63  43  48 E9        30.20R
MEDICINE HAT   PTCLDY    61  30  31 N8        30.19R
WATERTON GATE    N/A     59  46  63 NE3         N/A
CARDSTON         N/A     63  41  45 E5          N/A
ONEFOUR          N/A     55  36  47 N10         N/A
$$

REGIONAL REPORTS...SASKATCHEWAN

CITY           SKY/WX    TMP DP  RH WIND       PRES   REMARKS
SWIFT CURRENT  CLEAR     54  32  43 N13G18    30.16R
SASKATOON      PTCLDY    54  37  54 N14       30.16R
CYPRESS HILLS    N/A     52  23  32 N7          N/A
VAL MARIE        N/A     54  27  35 N12         N/A
ROCKGLEN         N/A     54  28  37 N15         N/A
$$




USA.gov is the U.S. government's official web portal to all federal, state and local government web resources and services.